Simultaneous Nadir Overpasses (SNOs) Predictions

Prediction of SNOs between AQUA and METOP-B Satellite Orbit:

Table of predicted SNOs for the next 14.0 days since TLE Epoch: 10/1/2016
Index Date (AQUA) Time (AQUA) Lat,Lon (AQUA) SZA (AQUA ) Date (METOP-B) Time (METOP-B) Lat,Lon (METOP-B) SZA (METOP-B ) Distance(km) Time Diff (sec)
1 10/03/2016 01:42:12 73.70, 148.85 77.70 10/03/2016 01:41:13 73.67, 148.91 77.68 3.16 59
2 10/03/2016 02:31:38 -73.73, -43.58 102.25 10/03/2016 02:31:53 -73.76, -43.57 102.23 2.56 15
3 10/03/2016 03:21:15 74.21, 122.97 78.26 10/03/2016 03:22:23 74.25, 124.97 78.27 60.40 68
4 10/05/2016 21:16:27 73.66,-144.64 78.75 10/05/2016 21:15:37 73.66,-144.72 78.75 2.47 50
5 10/05/2016 22:05:54 -73.75, 22.81 101.16 10/05/2016 22:06:17 -73.74, 22.80 101.16 1.00 23
6 10/08/2016 16:50:42 73.70, -78.28 79.86 10/08/2016 16:49:59 73.69, -78.24 79.85 1.68 43
7 10/08/2016 17:40:09 -73.78, 89.18 100.05 10/08/2016 17:40:39 -73.77, 89.29 100.06 3.43 30
8 10/11/2016 12:24:57 73.70, -11.84 80.91 10/11/2016 12:24:23 73.67, -11.88 80.89 3.06 34
9 10/11/2016 13:14:24 -73.78, 155.63 99.00 10/11/2016 13:15:03 -73.75, 155.65 99.02 2.41 39
10 10/14/2016 07:59:12 73.71, 54.58 81.97 10/14/2016 07:58:46 73.70, 54.59 81.97 1.22 26
11 10/14/2016 08:48:39 -73.78,-137.95 97.94 10/14/2016 08:49:26 -73.78,-137.88 97.94 2.05 47
